Weather History for K2WX - May, 2013

Change the Weather History Date:

Friday, May 24, 2013

  Actual Average Record
Temperature  
Mean Temperature 61 °F 56 °F  
Max Temperature 72 °F 68 °F 79 °F (2014)
Min Temperature 50 °F 44 °F 28 °F (2002)
Degree Days  
Heating Degree Days 4 9  
Month to date heating degree days 257 305  
Since 1 July heating degree days 7481 7758  
Cooling Degree Days 0 0  
Month to date cooling degree days 9 0  
Year to date cooling degree days 9 0  
Growing Degree Days 12 (Base 50)    
Moisture  
Dew Point 46 °F    
Average Humidity 57    
Maximum Humidity 83    
Minimum Humidity 31    
Precipitation  
Precipitation 0.00 in 0.15 in 0.44 in (2015)
Month to date precipitation 1.78 2.10  
Year to date precipitation 3.42 4.99  
Sea Level Pressure  
Sea Level Pressure 29.83 in    
Wind  
Wind Speed 19 mph (East)    
Max Wind Speed 41 mph    
Max Gust Speed 51 mph    
T = Trace of Precipitation, MM = Missing Value Source: NWS Daily Summary

Daily Weather History Graph

Daily Weather History Graph

Search for Another Location

Airport or City:

Trip Planner

Search our weather history database for the weather conditions in past years. The results will help you decide how hot, cold, wet, or windy it might be!

Date:

Astronomy

May. 24, 2013 Rise Set
Actual Time 5:13 AM MDT 8:28 PM MDT
Civil Twilight 4:37 AM MDT 9:04 PM MDT
Nautical Twilight 3:51 AM MDT 9:51 PM MDT
Astronomical Twilight 2:53 AM MDT 10:50 PM MDT
Moon 8:12 PM MDT (5/24) 4:50 AM MDT (5/24)
Length of Visible Light 16h 26m
Length of Day
15h 14m
Full, 100% of the Moon is Illuminated
May 24
Full
May 24
Full
May 31
Last Quarter
Jun 8
New
Jun 16
First Quarter

Hourly Weather History & Observations

Time (MDT) Temp. Dew Point Humidity Pressure Visibility Wind Dir Wind Speed Gust Speed Precip Events Conditions
12:56 AM 55.0 °F 43.0 °F 64% 29.81 in - SE 34.5 mph 43.7 mph N/A   Unknown
1:56 AM 55.0 °F 44.1 °F 67% 29.79 in - SE 39.1 mph 49.5 mph N/A   Unknown
2:56 AM 53.1 °F 44.1 °F 71% 29.78 in - SE 31.1 mph 38.0 mph N/A   Unknown
3:56 AM 53.1 °F 45.0 °F 74% 29.76 in - SE 31.1 mph 40.3 mph N/A   Unknown
4:56 AM 51.1 °F 45.0 °F 80% 29.75 in - SE 27.6 mph 34.5 mph N/A   Unknown
5:56 AM 52.0 °F 46.0 °F 80% 29.76 in - SE 24.2 mph - N/A   Unknown
6:56 AM 55.0 °F 48.0 °F 77% 29.78 in - SSE 18.4 mph 25.3 mph N/A   Unknown
7:56 AM 59.0 °F 50.0 °F 72% 29.76 in - SSE 26.5 mph 33.4 mph N/A   Unknown
8:56 AM 64.0 °F 52.0 °F 65% 29.77 in - SSE 18.4 mph 31.1 mph N/A   Unknown
9:56 AM 66.9 °F 53.1 °F 61% 29.77 in - South 18.4 mph - N/A   Unknown
10:56 AM 66.9 °F 53.1 °F 61% 29.79 in - SSW 11.5 mph - N/A   Unknown
11:23 AM 60.1 °F 50.0 °F 69% 29.85 in - WNW 28.8 mph 40.3 mph N/A   Unknown
11:34 AM 60.1 °F 50.0 °F 69% 29.85 in - WNW 32.2 mph 38.0 mph N/A   Unknown
11:56 AM 60.1 °F 48.9 °F 67% 29.84 in - WNW 27.6 mph 36.8 mph N/A   Unknown
12:56 PM 64.9 °F 48.0 °F 54% 29.84 in - NNW 24.2 mph - N/A   Unknown
1:56 PM 66.0 °F 44.1 °F 45% 29.85 in - NW 21.9 mph 27.6 mph N/A   Unknown
2:56 PM 69.1 °F 44.1 °F 40% 29.85 in - NNW 17.3 mph 25.3 mph N/A   Unknown
3:56 PM 71.1 °F 44.1 °F 38% 29.86 in - NW 12.7 mph - N/A   Unknown
4:56 PM 72.0 °F 44.1 °F 37% 29.86 in - North 13.8 mph 18.4 mph N/A   Unknown
5:56 PM 71.1 °F 39.9 °F 32% 29.86 in - NNW 10.4 mph - N/A   Unknown
6:56 PM 69.1 °F 43.0 °F 39% 29.87 in - NE 11.5 mph - N/A   Unknown
7:56 PM 63.0 °F 45.0 °F 52% 29.88 in - ENE 10.4 mph - N/A   Unknown
8:56 PM 60.1 °F 44.1 °F 55% 29.88 in - ENE 12.7 mph - N/A   Unknown
9:56 PM 55.0 °F 44.1 °F 67% 29.90 in - ENE 11.5 mph - N/A   Unknown
10:56 PM 54.0 °F 45.0 °F 72% 29.92 in - East 9.2 mph - N/A   Unknown
11:56 PM 52.0 °F 45.0 °F 77% 29.92 in - ENE 10.4 mph - N/A   Unknown